Вернуться в каталог

NOAA 16 DEB

АктивенPO
NORAD 41494·DEBRIS·🇺🇸 United States

Запущен Sep 21, 2000 с Vandenberg Space Force Base

Loading…

Ближайшие Пролёты (ближайшие 24 часа)

TLE

СвежийSource: Space-Track

Эпоха: Sep 14, 2026, 09:23 UTC

1 41494U 00055LS  26257.39152554  .00006420  00000-0  12420-2 0  9991
2 41494  98.9278 111.0064 0020396 135.7872 224.4962 14.63600586547311

Отслеживайте NOAA 16 DEB в реальном времени с AllMySat

Download on the App Store